Flag for Netherlands Weather past 2 weeks in Arnhem, Netherlands

Now
72 °F

Sunny.


Feels Like: 77 °F
Forecast: 62 / 87 °F
Wind: 3 mph from South

Location: Deelen

Current Time: Aug 2, 2015 at 12:59:34 PM

Latest Report: Aug 2, 2015 at 12:25 PM


Visibility: N/A

Pressure: 30.15 "Hg

Humidity: 47%

Dew point: 50 °F

Location of ArnhemLocation

Historic Weather in Arnhem — Graph

°F

Arnhem temperature yesterday

Maximum temperature yesterday: 72 °F (at 1:25 PM)
Minimum temperature yesterday: 48 °F (at 4:55 AM)
Average temperature yesterday: 61 °F

Past Weeks' High & Low Weather Summary

 TemperatureHumidityPressure
High77 °F (Jul 21, 3:55 PM)100% (Jul 19, 12:25 PM)30.15 "Hg (Jul 19, 12:25 PM)
Low39 °F (Jul 31, 6:55 AM)38% (Aug 1, 11:25 AM)29.45 "Hg (Jul 25, 6:25 AM)
Average61 °F78%29.86 "Hg
* Reported Jul 18 11:25 AM — Aug 2 11:55 AM, Arnhem, Weather by CustomWeather, © 2015

Note: Actual official high and low records may vary slightly from our data, if they occured in-between our weather recording intervals... More about our weather records

Advertising

Arnhem weather history for previous 24 hours

 ConditionsComfort  
Time TempWeatherWind HumidityBarometerVisibility
11:55 AM
Sun, Aug 2
70 °FPassing clouds.5 mph53%30.15 "HgN/A
11:25 AM70 °FPassing clouds.3 mph50%30.15 "HgN/A
10:55 AM68 °FPassing clouds.5 mph56%30.15 "HgN/A
10:25 AM66 °FSunny.5 mph60%30.12 "HgN/A
9:55 AM64 °FSunny.5 mph60%30.12 "HgN/A
9:25 AM63 °FSunny.3 mph68%30.12 "HgN/A
8:55 AM61 °FSunny.2 mph72%30.12 "HgN/A
8:25 AM59 °FSunny.1 mph72%30.12 "HgN/A
7:55 AM54 °FPassing clouds.1 mph94%30.12 "HgN/A
7:25 AM50 °FSunny.2 mph94%30.12 "HgN/A
6:55 AM46 °FPassing clouds.2 mph93%30.09 "HgN/A
5:55 AM45 °FClear.1 mph93%30.09 "HgN/A
5:25 AM45 °FPassing clouds.1 mph93%30.09 "HgN/A
4:55 AM45 °FPassing clouds.2 mph100%30.09 "HgN/A
4:25 AM46 °FPassing clouds.1 mph87%30.09 "HgN/A
3:55 AM46 °FPassing clouds.1 mph93%30.09 "HgN/A
3:25 AM46 °FPassing clouds.1 mph93%30.09 "HgN/A
2:55 AM46 °FClear.3 mph93%30.09 "HgN/A
2:25 AM46 °FClear.3 mph93%30.09 "HgN/A
1:55 AM48 °FPassing clouds.2 mph94%30.07 "HgN/A
1:25 AM48 °FPassing clouds.1 mph94%30.07 "HgN/A
12:55 AM50 °FClear.No wind88%30.07 "HgN/A
11:55 PM
Sat, Aug 1
52 °FPassing clouds.2 mph88%30.07 "HgN/A
11:25 PM52 °FClear.2 mph88%30.07 "HgN/A
10:55 PM54 °FClear.No wind88%30.07 "HgN/A
10:25 PM55 °FSunny.2 mph82%30.07 "HgN/A
9:55 PM57 °FPassing clouds.3 mph82%30.07 "HgN/A
9:25 PM61 °FSunny.3 mph72%30.04 "HgN/A
8:55 PM66 °FPassing clouds.5 mph52%30.04 "HgN/A
8:25 PM66 °FPassing clouds.5 mph60%30.01 "HgN/A
7:55 PM70 °FSunny.3 mph46%30.01 "HgN/A
7:25 PM70 °FSunny.6 mph43%30.01 "HgN/A
6:55 PM72 °FPassing clouds.6 mph44%30.01 "HgN/A
6:25 PM72 °FScattered clouds.5 mph44%30.01 "HgN/A
5:55 PM70 °FSunny.3 mph46%30.01 "HgN/A
5:25 PM72 °FPassing clouds.8 mph44%30.01 "HgN/A
4:55 PM70 °FPartly sunny.6 mph50%30.01 "HgN/A
4:25 PM72 °FPassing clouds.8 mph41%29.98 "HgN/A
3:55 PM72 °FScattered clouds.6 mph38%29.98 "HgN/A
3:25 PM72 °FPartly sunny.5 mph41%29.98 "HgN/A
2:55 PM72 °FScattered clouds.5 mph41%29.98 "HgN/A
2:25 PM72 °FPartly sunny.5 mph41%29.98 "HgN/A
1:55 PM70 °FScattered clouds.2 mph40%29.98 "HgN/A
1:25 PM72 °FPassing clouds.6 mph41%30.01 "HgN/A
12:55 PM70 °FPartly sunny.3 mph40%29.98 "HgN/A
12:25 PM70 °FSunny.2 mph43%30.01 "HgN/A
Weather by CustomWeather, © 2015

See weather overviewHow to use our weather pages